Lapse_Rate
1.6 1.1 0.9 1.1 1.0 0.3 -0.1 -0.5 -0.9 -1.4 -1.8 -2.8 -3.4 -3.4 -3.7 -3.9 -3.5 -2.4 -1.1 -0.3 0.1 -0.2 0.1 0.1 -0.2 0.2 0.9 0.8 1.7 3.6 4.3 4.7 5.7 5.5 4.6 3.9 3.2 2.9 2.2 2.2 2.4 2.1 2.4
2.0 1.6 0.9 0.7 0.5 -0.3 -1.1 -1.5 -1.5 -2.5 -2.8 -3.2 -2.8 -2.5 -2.5 -2.4 -2.3 -1.1 -0.9 -0.8 -0.4 -0.2 -0.2 -0.7 -0.8 -0.4 -0.4 0.4 1.7 1.6 2.3 2.4 3.7 5.2 5.2 4.8 4.2 3.4 3.9 3.9 3.4 3.3 3.0
1.2 1.7 1.2 0.8 0.1 -0.6 -1.0 -1.5 -1.9 -2.4 -2.3 -1.7 -1.8 -2.1 -2.0 -2.4 -1.4 -0.6 -0.8 -0.3 0.4 0.8 1.3 0.3 0.4 0.6 0.2 0.3 0.9 0.7 1.0 2.1 2.8 3.9 4.2 4.8 4.7 3.8 4.1 3.4 3.7 3.1 3.3
1.5 1.4 0.5 0.5 -0.2 -0.8 -1.5 -1.5 -1.3 -1.0 -1.2 -1.4 -1.3 -1.3 -1.5 -1.5 -1.6 -0.2 0.4 0.4 1.0 1.6 1.9 1.3 0.8 0.4 0.4 0.9 2.0 1.4 1.4 2.0 2.3 2.7 3.8 3.6 3.7 2.8 3.5 4.7 4.4 4.2 4.1
2.0 1.9 -0.0 -0.1 -0.6 -1.7 -0.7 -0.3 -0.3 -0.1 -0.4 -0.6 -0.7 -1.0 -0.8 -0.6 -0.2 0.7 1.9 1.9 1.9 2.1 1.3 1.8 1.6 1.9 1.7 1.1 1.7 2.1 1.6 2.8 3.7 4.3 4.8 4.6 4.3 3.3 3.0 3.4 4.1 4.1 5.1
3.4 1.8 1.2 0.2 0.6 -1.1 -0.7 0.4 0.6 0.6 0.3 -0.0 -0.8 -0.8 -0.5 0.2 0.1 0.6 1.1 2.7 2.7 2.8 1.2 0.8 1.1 1.4 1.2 2.0 1.8 2.4 3.2 2.9 3.9 4.5 5.6 5.9 5.8 5.8 5.5 5.5 4.8 4.6 4.9
2.3 3.1 3.2 2.6 0.4 1.5 2.1 1.4 1.7 0.9 1.1 0.6 1.1 1.3 0.5 0.8 0.2 0.4 0.2 2.0 2.0 2.3 2.4 1.8 1.2 1.7 1.3 1.7 2.4 2.8 2.6 1.9 0.3 3.8 4.9 4.9 4.9 5.1 5.0 5.4 5.4 5.5 4.4
1.9 1.8 2.2 2.4 2.7 2.5 2.0 2.4 2.0 1.8 1.6 1.9 2.1 2.7 3.1 2.1 1.4 1.3 1.1 2.0 2.2 2.0 2.2 2.8 2.8 3.1 3.2 2.7 2.7 3.3 3.3 2.9 2.4 2.0 2.6 4.1 4.6 4.6 4.9 5.0 5.1 5.1 4.0
2.1 1.9 1.6 2.7 2.6 2.5 2.5 2.5 2.4 2.0 2.1 2.4 3.5 3.4 3.3 3.8 2.5 2.0 1.7 2.0 2.1 2.5 3.0 3.1 3.1 2.3 3.2 3.6 3.7 3.0 2.3 3.1 3.5 4.1 3.5 4.4 4.8 4.8 4.4 5.0 5.1 4.9 4.5
2.3 2.6 3.4 3.5 3.6 3.6 3.1 1.8 1.9 2.3 3.0 3.4 3.5 3.8 4.7 3.9 3.6 4.3 3.5 3.2 2.9 3.1 3.4 3.7 3.5 3.3 3.2 5.5 5.7 5.4 5.1 3.5 2.8 2.6 2.6 4.3 5.0 5.3 4.1 5.1 5.2 4.7 4.2
3.2 3.1 3.7 4.4 4.1 4.0 3.1 2.9 3.1 3.7 3.3 3.7 5.0 4.4 3.9 4.2 5.4 6.0 5.4 5.1 5.1 5.2 4.8 4.0 4.6 6.2 6.0 5.7 5.5 5.6 5.5 5.1 4.7 4.0 3.4 4.4 4.7 4.8 5.1 4.7 4.6 4.8 4.1
4.0 2.8 2.2 2.2 3.4 3.7 3.1 4.6 3.8 3.7 4.3 4.8 4.3 4.1 4.3 4.8 5.9 6.1 5.9 6.0 6.0 5.8 5.9 6.6 6.9 7.2 6.2 6.1 5.5 5.3 5.1 4.5 4.9 4.9 4.9 4.9 4.9 4.6 4.4 4.1 4.1 3.9 3.9
3.6 1.1 2.8 3.2 3.6 5.6 5.2 3.9 3.7 4.3 4.4 4.9 4.8 4.6 5.1 5.1 4.8 5.9 6.3 6.5 6.4 5.7 5.4 6.4 6.9 7.0 6.6 5.8 5.8 5.4 4.8 5.2 5.3 5.4 5.5 5.4 5.0 5.0 4.6 4.2 4.3 4.4 3.8
3.5 3.9 3.1 4.8 5.4 4.7 4.1 4.4 4.1 4.5 4.8 4.2 4.4 3.9 4.0 4.6 4.9 5.9 5.8 5.2 5.7 6.5 5.5 5.7 6.2 6.4 6.6 6.6 5.8 5.9 5.7 5.7 5.8 6.0 6.0 5.6 5.2 4.9 4.8 4.6 4.2 4.0 4.1
3.2 5.0 5.6 4.8 4.5 4.3 4.3 4.7 5.0 5.3 5.6 4.7 3.8 4.5 4.9 5.2 5.9 6.3 5.8 5.0 5.0 5.5 4.7 4.9 5.2 5.6 6.3 6.7 6.7 6.4 5.9 5.8 5.9 6.1 6.0 5.8 5.5 5.0 4.8 4.5 4.3 4.2 4.7
4.5 4.1 3.4 3.3 3.5 3.7 3.8 3.7 5.2 5.5 5.6 5.9 5.9 5.0 3.9 5.6 5.8 5.8 5.5 5.3 5.4 5.2 4.7 5.0 5.2 5.3 5.2 5.1 5.8 6.0 6.3 5.9 5.6 5.7 5.7 5.5 5.5 5.3 5.2 4.7 4.5 4.8 5.0
2.7 2.9 2.6 2.7 2.7 2.5 2.5 2.8 2.7 3.6 5.1 4.8 4.8 4.8 5.0 5.6 5.7 5.8 5.4 5.0 5.4 5.2 5.0 5.4 5.7 6.3 6.5 6.6 5.7 5.4 6.1 6.4 5.4 5.4 5.5 5.4 5.4 5.4 5.4 5.3 5.2 5.1 5.0
2.1 2.5 2.4 2.5 2.6 2.2 2.3 3.0 3.1 2.6 2.3 2.5 4.1 4.0 3.8 4.5 4.8 5.0 4.7 3.7 2.1 3.3 4.9 5.7 6.8 6.2 6.3 6.2 5.4 5.1 5.5 6.2 5.9 5.6 5.5 5.6 5.6 5.5 5.5 5.4 5.4 5.3 5.5
3.0 2.5 2.4 2.5 3.0 3.0 3.3 3.3 3.8 4.0 3.7 3.4 3.2 2.2 2.0 3.4 4.0 4.0 4.1 3.4 3.9 4.6 4.9 5.3 5.7 5.8 6.1 5.3 4.6 4.0 3.5 6.1 5.9 5.8 5.7 5.9 5.7 5.3 5.4 5.7 5.6 5.7 6.0
2.6 2.4 2.5 3.1 2.9 2.6 2.8 2.9 3.3 3.7 3.8 4.2 4.5 4.2 2.9 2.3 1.6 1.7 2.5 2.5 2.9 3.8 4.6 5.1 5.3 5.4 5.1 4.8 3.5 3.5 2.9 3.8 4.9 5.7 5.8 5.8 5.5 5.3 5.5 5.6 5.8 5.7 5.3
2.4 3.0 2.2 2.5 2.5 2.5 2.6 2.7 2.9 2.7 3.0 3.6 4.0 4.0 3.0 3.1 2.9 2.8 2.8 2.7 2.5 3.5 4.0 4.5 4.6 4.8 4.5 3.9 3.2 2.7 2.5 2.4 3.2 3.5 4.0 5.5 5.6 5.5 5.6 5.5 5.3 5.2 5.1
2.7 2.6 2.4 2.2 2.2 1.6 2.0 2.3 2.5 2.8 2.7 2.1 2.2 2.6 1.4 1.5 1.5 1.7 1.8 1.5 1.5 2.8 3.3 3.8 3.6 4.2 4.0 3.2 2.7 2.1 1.6 1.2 1.5 1.7 2.2 3.7 5.4 5.3 5.7 5.4 5.4 5.3 5.2
1.8 1.5 1.7 1.7 1.5 0.6 0.9 2.0 1.8 1.6 1.6 1.1 1.0 1.0 0.7 0.4 0.2 0.3 0.2 -0.2 0.3 0.9 1.3 2.0 2.2 2.4 2.2 1.4 1.3 1.8 1.1 0.9 0.7 0.9 1.4 2.7 4.6 5.3 5.7 5.6 5.2 5.3 5.3
1.2 1.1 0.9 0.3 0.1 0.5 0.3 -0.4 0.4 0.0 0.4 -0.2 -1.0 -0.3 -0.5 -0.7 -1.0 -1.0 -1.4 -1.5 -1.1 -0.5 -0.1 0.0 0.6 1.1 0.6 -0.3 -0.3 -0.2 -0.1 -0.2 -0.1 0.4 1.1 1.9 4.2 5.1 5.4 5.3 5.0 5.3 5.1
0.7 0.1 -0.2 -0.2 -0.4 -1.7 -3.1 -1.2 -1.7 -1.9 -1.7 -1.7 -2.1 -2.1 -1.4 -1.7 -1.5 -2.2 -2.6 -2.4 -2.4 -2.2 -1.4 -1.5 -1.0 -0.9 -0.8 -1.3 -1.4 -1.4 -1.4 -1.7 -1.5 -0.9 0.4 1.4 4.0 5.0 5.0 5.1 5.2 4.9 5.0
-0.2 -0.2 -0.5 -0.7 -1.4 -2.1 -2.7 -5.0 -3.8 -3.1 -3.7 -2.7 -3.1 -3.5 -3.1 -2.9 -2.7 -3.5 -3.2 -3.3 -3.6 -3.4 -2.8 -2.6 -2.3 -2.5 -1.9 -2.0 -2.0 -1.7 -2.2 -2.4 -2.4 -1.8 -0.4 1.4 4.4 5.1 4.8 5.1 5.1 4.9 5.0
Wind_Speed
11 13 13 12 11 12 11 10 11 12 9 10 10 10 10 10 9 8 8 11 10 10 10 10 10 11 7 8 8 8 7 5 7 4 4 5 5 8 6 7 10 7 9
10 10 11 11 12 12 12 11 11 12 12 12 11 10 10 9 9 11 11 10 10 11 10 10 11 9 11 10 7 9 7 9 8 10 3 4 7 7 7 7 8 7 8
13 9 11 11 12 12 12 11 12 13 11 10 11 11 10 10 11 11 11 10 9 8 9 10 10 11 11 10 10 9 7 7 6 5 4 4 3 2 4 4 4 7 7
11 9 11 10 11 11 12 12 12 11 10 10 10 11 11 10 9 11 10 10 9 8 8 7 9 11 10 10 8 9 10 8 8 7 5 6 5 7 5 7 5 4 6
12 8 13 11 10 13 11 10 10 10 9 9 10 11 12 11 8 8 9 9 9 7 6 7 6 11 15 12 7 8 9 8 7 7 7 4 6 7 8 6 7 8 8
10 13 12 12 10 12 10 8 9 9 8 9 10 11 11 9 16 17 11 6 6 8 5 5 4 6 8 12 15 13 8 6 6 5 4 5 5 5 7 7 6 7 3
14 12 11 9 14 8 7 9 8 7 7 9 9 9 11 10 17 18 17 6 6 7 7 5 6 4 5 5 9 12 11 11 5 5 5 5 6 6 7 7 7 6 3
13 13 11 11 8 7 8 7 8 8 10 10 10 11 8 8 14 17 16 9 8 9 10 10 10 11 6 8 7 5 8 6 7 7 7 7 6 7 6 6 7 7 4
14 13 13 10 8 8 7 8 8 9 9 9 8 8 7 8 12 17 14 9 9 10 10 10 9 7 13 16 8 7 6 4 4 13 13 13 12 11 7 5 3 4 3
14 14 13 10 10 8 8 10 9 8 9 7 7 6 9 6 12 15 15 6 9 9 10 10 11 11 17 17 9 7 8 6 6 7 8 9 8 7 8 4 4 2 2
15 15 13 10 9 8 7 8 7 6 7 6 6 4 5 5 6 15 18 9 8 9 7 7 7 14 17 18 13 7 7 7 8 5 5 5 5 4 3 4 4 3 2
13 15 13 11 8 7 8 6 7 5 5 5 5 6 5 6 12 18 20 17 16 8 9 7 7 16 18 17 12 11 13 7 4 5 4 5 4 4 3 4 4 3 2
11 16 11 9 8 6 5 7 6 5 6 6 7 9 8 8 8 18 19 19 16 9 7 14 22 16 16 11 13 14 9 4 5 5 5 5 3 4 5 4 3 3 2
11 10 8 8 8 8 7 7 7 7 8 7 8 8 7 7 8 9 9 9 15 12 13 10 11 11 9 10 8 8 5 5 5 5 5 4 4 2 3 2 1 1 1
12 10 9 8 7 7 8 7 7 10 10 8 7 6 8 9 10 17 16 11 10 12 10 8 8 8 9 9 8 9 6 5 5 4 4 4 4 3 3 2 2 1 2
11 8 7 6 6 5 6 6 18 17 20 19 18 12 7 17 22 23 25 25 23 22 8 9 10 11 11 10 11 9 9 7 5 5 4 4 4 3 3 2 2 2 3
11 10 7 7 7 6 6 7 6 6 13 17 19 20 22 21 22 23 24 22 21 16 9 9 9 10 10 10 11 10 10 7 7 5 5 4 4 4 4 3 3 3 3
13 12 7 7 6 6 5 5 4 6 7 7 11 18 22 23 22 23 24 18 11 13 9 9 9 11 11 11 12 12 10 8 5 5 4 4 4 3 4 3 3 3 3
9 7 7 7 6 6 6 6 6 6 7 7 8 12 18 23 21 20 21 9 9 9 10 11 10 11 11 11 12 12 14 8 5 4 3 4 4 3 4 4 3 5 4
10 12 8 6 6 7 6 7 7 7 7 7 7 9 10 11 11 11 10 9 9 9 10 11 11 11 11 11 11 11 11 11 10 6 5 5 4 3 4 3 3 2 2
6 6 8 7 7 7 7 7 7 7 7 6 7 8 14 9 9 9 9 9 9 10 11 11 11 11 10 11 11 11 11 10 10 9 9 7 6 4 3 3 2 3 2
6 7 7 8 7 7 7 7 7 6 7 7 7 8 12 7 8 9 9 10 10 10 10 10 10 10 10 11 11 11 11 11 10 10 10 9 8 5 3 1 2 2 3
7 8 8 7 7 9 7 6 6 6 6 7 8 8 8 8 8 9 10 10 10 10 16 13 11 11 13 15 15 9 11 11 11 10 10 10 8 6 3 1 1 2 2
8 8 8 8 7 7 5 5 6 7 7 7 7 8 8 9 9 10 10 10 9 14 17 16 14 13 15 18 18 19 18 18 17 10 12 9 8 7 4 1 1 2 2
7 8 8 7 6 4 3 5 5 6 6 7 7 8 8 8 9 10 9 10 11 11 15 19 18 22 22 24 22 27 28 27 22 19 9 10 9 7 3 1 1 2 2
8 8 7 5 4 4 5 3 4 6 7 6 7 6 7 8 9 9 10 10 11 11 18 19 22 27 28 24 28 32 30 28 24 24 15 7 7 5 2 1 3 2 3
Wind_Direction
78 98 94 91 92 88 85 80 81 76 73 67 57 50 44 36 27 32 29 26 25 19 15 8 3 355 352 351 344 343 299 262 267 266 221 225 223 232 234 219 235 224 236
54 73 84 88 85 85 83 79 81 78 65 61 56 53 45 39 39 39 33 28 28 25 22 17 13 7 7 357 352 352 339 336 336 309 272 247 232 226 238 225 228 226 230
79 55 62 69 71 77 80 77 70 73 69 68 65 57 48 41 42 40 41 37 36 25 29 27 16 11 14 7 8 356 345 339 351 332 325 341 307 325 279 261 241 241 235
77 107 87 72 76 64 65 66 71 79 81 75 69 64 54 46 40 38 41 40 35 28 21 18 19 14 4 355 355 354 355 354 355 358 355 348 341 341 321 323 318 276 257
111 116 83 76 68 81 67 65 74 80 83 83 76 63 53 44 31 18 34 35 33 19 360 11 10 15 11 2 354 347 2 1 2 1 1 351 355 355 349 335 317 312 303
87 64 59 90 84 63 73 75 73 76 80 81 74 69 57 43 21 9 360 2 356 9 351 344 342 1 2 358 1 356 10 3 357 348 352 354 343 343 339 338 334 342 326
80 72 76 57 66 72 84 73 75 69 62 67 66 79 64 41 23 11 358 351 352 353 341 344 337 338 343 342 348 354 359 355 352 321 331 334 317 329 322 327 336 328 311
96 94 77 79 68 49 45 56 54 55 55 51 56 50 43 37 21 15 7 5 360 351 352 355 346 340 341 339 320 336 346 340 342 332 320 313 314 317 307 309 304 296 290
101 88 85 78 71 57 59 56 53 54 51 53 45 42 30 21 33 19 11 5 359 355 347 340 330 321 329 337 324 321 315 303 315 322 308 300 309 314 321 320 324 322 303
89 89 81 78 77 72 61 63 48 46 52 47 37 22 22 10 28 15 15 356 353 346 345 339 327 324 327 326 317 308 307 305 313 316 311 316 315 309 317 311 302 274 265
94 90 85 82 78 74 61 62 63 55 51 41 28 14 19 13 358 5 8 1 350 341 330 325 319 314 320 317 312 295 282 300 301 299 297 293 289 292 313 319 318 314 269
97 92 80 70 72 59 57 54 54 40 32 19 12 356 358 5 5 7 358 347 330 323 318 311 309 309 314 312 312 294 294 290 274 281 285 286 291 300 304 300 308 316 322
71 84 89 86 68 47 47 44 40 26 32 29 34 28 17 8 359 354 355 349 339 327 314 311 302 307 312 307 298 295 295 277 274 278 282 283 270 277 289 289 279 297 340
93 82 66 67 70 57 56 59 55 51 49 45 29 23 5 356 354 354 346 340 339 338 336 315 303 294 294 297 298 294 285 273 273 276 276 273 275 259 277 268 268 294 292
83 80 74 68 60 63 64 59 60 63 55 49 35 20 3 358 354 356 355 350 346 341 333 338 337 334 326 318 316 305 286 284 280 272 269 270 272 262 260 239 235 226 242
90 82 74 71 64 56 53 51 47 53 48 46 37 27 5 2 1 360 356 352 353 354 351 351 345 338 329 320 313 309 298 279 272 268 272 266 270 271 266 235 223 228 249
86 80 76 71 64 55 49 44 34 12 34 31 27 20 12 7 6 4 1 355 355 3 359 343 334 330 324 317 311 301 301 295 282 271 269 267 263 263 265 247 235 229 243
78 73 76 69 63 54 48 45 39 28 12 7 15 14 9 8 7 6 5 360 356 360 353 338 335 333 329 331 325 319 290 288 275 273 269 266 258 251 261 247 239 231 226
85 75 69 69 64 58 53 47 42 34 23 9 358 6 2 357 2 5 8 6 350 344 341 337 339 334 332 333 329 328 330 294 278 282 277 280 270 253 258 251 237 228 206
73 69 69 73 64 56 50 46 38 30 22 15 11 8 351 351 360 357 356 355 346 340 339 335 334 334 332 333 332 333 334 341 350 345 330 309 288 267 261 251 235 197 167
82 83 78 69 60 56 50 43 37 30 19 10 4 8 359 360 352 349 347 348 342 334 334 332 333 331 335 332 333 333 334 333 340 340 335 330 316 296 271 256 227 166 154
86 78 72 68 62 53 49 41 32 25 18 9 359 358 358 3 357 350 345 342 335 331 331 329 330 330 336 332 331 330 332 330 332 332 327 323 320 311 295 268 174 143 155
78 75 70 64 59 53 42 33 32 25 17 10 1 358 359 356 351 348 341 336 333 331 331 330 329 331 336 333 329 329 327 326 323 317 313 314 312 322 318 332 112 128 138
76 73 73 65 53 50 40 28 23 20 17 12 4 360 355 349 344 341 337 333 331 331 331 330 327 330 332 333 330 330 326 324 319 310 312 302 302 317 325 349 88 133 136
73 69 63 57 54 36 19 31 22 16 15 12 3 356 349 344 342 340 334 334 332 330 330 330 330 331 335 331 331 332 330 329 326 320 314 304 299 313 322 338 80 95 111
68 65 61 55 49 45 38 6 17 21 14 3 355 348 344 342 340 336 336 337 333 329 331 331 331 333 336 337 336 335 334 333 331 327 323 303 309 321 326 40 98 100 110